星链-1498 (STARLINK-1498 )

导读 | 豆包AI

STARLINK-1498是美国太空探索技术公司Starlink卫星互联网项目中的卫星,于2020年6月13日发射升空,属于星链星座组网的组成部分。星链计划旨在构建全球卫星互联网星座,该卫星承担着为全球偏远地区、海洋等场景提供宽带网络接入的任务,是美国低轨卫星星座建设的一环。

基本信息
目录编号:
45782
目录名称:
STARLINK-1498
国际标识:
2020-038BE
轨道中心:
EARTH
卫星名称:
星链-1498
卫星全名:
星链-1498 (STARLINK-1498 )
卫星状态:
已陨落 最后检测时间 2024-12-04
发射日期:
2020-06-13 UTC
国别 :
美国 (US)
星等 :
--
轨道信息
数据来源 国际轨道数据
星历时间: 2024-12-04T21:35:03+0800
轨道信息已过期464天
半长轴: 6556.57km
偏心率: 0.0001936
轨道倾角: 53.030°
近地点辐角 108.401°
升交点赤经 327.311°
平近点角 347.311°
近地点: 177.165km
远地点: 179.705km
周期: 88.059分钟
每日圈数: 16.352636
详细信息
固有亮度:
5
最大亮度:
2.5
卫星平台:
Starlink V1.0
覆盖范围:
全球
运营商:
太空探索技术公司
运营商所在国:
美国
制造商(研发单位):
太空探索技术公司
制造商所在国:
美国
使用方式:
暂无
卫星简介
星链(Starlink)计划是由太空探索技术公司(SpaceX)提出的一个巨型低轨卫星互联网星座项目,计划在2019年至2024年间在太空搭建由约1.2万颗卫星组成的“星链”网络,其中1584颗将部署在地球上空550千米处的近地轨道,并从2020年开始工作。该卫星仍在工作。